Location: Goll?ig?dem
(16.6773°N, 80.7332°E)
Time: 07:12:07
(UTC+00:00)

Cosmos 1833 Rocket - Pass Details

Date: 19 May 2025
Orbit: 831 x 839 km, 71.0° (Epoch: 18 June)

Event Time Altitude Azimuth Distance (km) Brightness Sun altitude
Rises 15:07:56 0° 206° (SSW) 3,372 5.8 -27.6°
Reaches altitude 10° 15:10:25 10° 211° (SSW) 2,440 5.0 -28.1°
Maximum altitude 15:15:52 54° 288° (WNW) 1,010 3.3 -29.2°
Drops below altitude 10° 15:21:21 10° 5° (N) 2,447 5.4 -30.3°
Sets 15:23:51 0° 10° (N) 3,382 6.2 -30.8°
